Simultaneous Nadir Overpasses (SNOs) Predictions

Prediction of SNOs between METOP-A and TERRA Satellite Orbit:

Table of predicted SNOs for the next 14.0 days since TLE Epoch: 10/20/2018
Index Date (METOP-A) Time (METOP-A) Lat,Lon (METOP-A) SZA (METOP-A ) Date (TERRA) Time (TERRA) Lat,Lon (TERRA) SZA (TERRA ) Distance(km) Time Diff (sec)
1 10/22/2018 10:41:49 81.43, 68.92 95.89 10/22/2018 10:42:34 81.43, 68.89 95.91 0.56 45
2 10/22/2018 11:32:29 -81.43,-123.60 84.09 10/22/2018 11:32:01 -81.43,-123.58 84.10 0.58 28
3 10/25/2018 06:16:04 81.43, 135.30 96.87 10/25/2018 06:16:46 81.43, 135.21 96.88 1.56 42
4 10/25/2018 07:06:44 -81.43, -57.21 83.10 10/25/2018 07:06:13 -81.42, -57.23 83.13 0.95 31
5 10/28/2018 01:50:19 81.43,-157.95 97.87 10/28/2018 01:50:58 81.44,-158.13 97.87 3.06 39
6 10/28/2018 02:40:59 -81.43, 9.57 82.11 10/28/2018 02:40:25 -81.44, 9.47 82.13 1.67 34
7 10/30/2018 21:24:36 81.43, -92.00 98.74 10/30/2018 21:25:11 81.43, -91.89 98.76 1.91 35
8 10/30/2018 22:15:15 -81.43, 75.94 81.19 10/30/2018 22:14:38 -81.43, 75.74 81.23 3.28 37
9 11/02/2018 16:58:50 81.43, -25.28 99.67 11/02/2018 16:59:22 81.43, -25.31 99.68 0.61 32




NCC Satellite Simultaneous Nadir Overpasses (SNOs) Prediction Service
